sat.trackr.live / text

‹ back to catalog

STARLINK-36827

NORAD 67908 · 2026-036E

PAYLOAD ACTIVE UNKNOWN

§ Identity

Operator
Country
US
Launch date
2026-02-22
Launch site
AFETR
Launch vehicle
Mass (kg)
RCS (m²)

Purposes: comms

External: N2YO · Heavens-Above · Gunter

§ Orbital elements

Epoch: 2026-09-19T06:14:33.237024Z

Period
94.27 min
Inclination
42.9992°
Eccentricity
0.0001412
Mean motion
15.27587063 rev/d
Perigee alt
482.1 km
Apogee alt
484.0 km
Semi-major
6,861.2 km
B*
3.6298e-4
RAAN
232.2988°
Arg perigee
266.7066°
Mean anomaly
93.3624°
Rev number
3,332

§ Raw data

STARLINK-368271 67908U 26036E   26262.26010691  .00009742  00000+0  36298-3 0  99922 67908  42.9992 232.2988 0001412 266.7066  93.3624 15.27587063 33324

JSON: /api/v1/satellites/67908 · /tle

For live sub-satellite position, see the globe view (requires WebGL).

§ Visibility from observer

Set your observer location to see the next 7 days of passes ≥ 10°. The values pass through the URL so the page stays shareable.

No JS? Fill the form by hand. The geolocation button needs JavaScript.